Regional Weather Roundup
Issued by NWS

Home | Current Version | Previous Version | Text Only | Print | Product List | Glossary Off
Versions: 1 2 3 4 5 6 7 8 9 10 11 12 13 14 15 16 17 18 19 20 21 22 23 24 25 26 27

000
ASUS45 KBOU 242010
RWRCO

WEATHER ROUNDUP FOR COLORADO
NATIONAL WEATHER SERVICE DENVER/BOULDER CO
100 PM MST FRI NOV 24 2017

NOTE: "FAIR" INDICATES FEW OR NO CLOUDS BELOW 12000 FEET WITH NO
SIGNIFICANT WEATHER AND/OR OBSTRUCTIONS TO VISIBILITY.

COZ001>005-013-030-031-242100-
...NORTHWEST COLORADO...

CITY           SKY/WX    TMP DP  RH WIND       PRES   REMARKS
CRAIG          FAIR      62  30  29 W18G25    29.97F
HAYDEN         FAIR      56  34  43 W14G20    30.00F
MEEKER         FAIR      62  27  26 W24G37    29.99F
RABBIT EARS PA CLOUDY    36  30  80 W7        30.11F
STEAMBOAT SPGS FAIR      53  34  48 CALM      30.00S
WALDEN         FAIR      52  27  37 SW24G32   30.02R
$$

COZ006>008-011-242100-
...WEST CENTRAL VALLEYS...

CITY           SKY/WX    TMP DP  RH WIND       PRES   REMARKS
GRAND JUNCTION FAIR      57  34  41 CALM      30.02F
MONTROSE       FAIR      56  28  34 NW3       30.04F
EAGLE          FAIR      50  33  52 VRB3      30.04F
RIFLE          FAIR      52  36  54 NE6       30.03F
DELTA          FAIR      62  31  31 SW9       30.02F
NUCLA          FAIR      61  27  27 NW3       30.08F
$$

COZ017>023-064>068-242100-
...SOUTHWEST COLORADO...

CITY           SKY/WX    TMP DP  RH WIND       PRES   REMARKS
DURANGO        FAIR      61  29  29 SW10      30.07F
CORTEZ         FAIR      64  30  27 SW7       30.07F
PAGOSA SPRINGS FAIR      56  24  28 S6        30.12F
TELLURIDE      FAIR      57  23  27 W16G28    30.19F
WOLF CREEK PAS FAIR      39  21  48 SW15      30.32F
$$

COZ009-010-012-014-032>034-037-058>063-242100-
...CENTRAL COLORADO...

CITY           SKY/WX    TMP DP  RH WIND       PRES   REMARKS
ASPEN          PTSUNNY   49  29  46 NW5       30.08R
BUENA VISTA    FAIR      57  16  19 SW20G25   30.04S
COPPER MTN     CLOUDY    37  25  60 NW17G26   30.20F
BERTHOUD PASS  CLOUDY    28  18  64 W45G58    30.15F HAZE    WCI  10
COTTONWOOD PAS FAIR      52  16  24 W16G25    30.12S
GUNNISON       FAIR      41  27  57 CALM      30.11F
KREMMLING      FAIR      61  28  29 SW17      30.02F
LEADVILLE      LGT RAIN  41  20  43 W9G23     30.14R
MONARCH PASS   CLOUDY    34  18  51 W35G46    30.31F WCI  19
SALIDA         FAIR      61  15  16 W24G30    30.10S
SUNLIGHT       FAIR      41  25  52 SW13G26   30.21F
WILKERSON PASS CLOUDY    46  18  31 W7        30.20F
$$

COZ069>075-242100-
...SAN LUIS VALLEY/SANGRE DE CRISTO MOUNTAINS...

CITY           SKY/WX    TMP DP  RH WIND       PRES   REMARKS
ALAMOSA        FAIR      60  18  19 VRB3      30.03F
DEL NORTE      FAIR      54  24  31 E8        30.05F
LA VETA PASS   FAIR      54  18  24 S16G29      N/A
SAGUACHE       FAIR      54  27  35 SE10      30.04F
$$

COZ035-036-038>040-242100-
...NORTHERN COLORADO FRONT RANGE...

CITY           SKY/WX    TMP DP  RH WIND       PRES   REMARKS
DENVER INTL AP PTSUNNY   69  22  16 W21G26    29.86S
DMNS CITY PARK   N/A     67  27  22 W15G32    29.86S
AURORA         PTSUNNY   67  23  19 NW32      29.87F
FRONT RANGE AP PTSUNNY   66  28  24 N15       29.87F
ERIE MUNI ARPT FAIR      72  19  13 W22G31    29.90S
BOULDER MUN AP FAIR      70  23  17 W13G23    29.85F
CENTENNIAL     PTSUNNY   66  27  23 CALM      29.89R
BROOMFIELD     PTSUNNY   70  23  17 SW24G31   29.89R
FORT COLLINS   FAIR      71  29  21 VRB3      29.84F
LONGMONT       FAIR      76  22  13 W10       29.84F
$$

COZ041-046-047-076>085-087-088-242100-
...PIKES PEAK/PALMER DIVIDE AND SOUTHERN FOOTHILLS...

CITY           SKY/WX    TMP DP  RH WIND       PRES   REMARKS
COLO. SPRINGS  PTSUNNY   71  22  15 W6        29.89R
A. F. ACADEMY  FAIR      72  19  14 NW21G26   29.89S
SCHRIEVER AFB  FAIR      67  18  15 CALM      29.89S
CHEYENNE MTN   FAIR      64  18  17 CALM      29.88R
ELLICOTT         N/A    N/A N/A N/A SW5       29.87F
FALCON         FAIR      68  18  14 NW17G29   29.93S
FORT CARSON    FAIR      70  19  14 E8        29.86R
LIMON          FAIR      68  24  19 N17       29.86S
MONUMENT HILL  PTSUNNY   61  23  23 N9        29.96R
CANON CITY     FAIR      77  21  12 W28G37    29.83R
WALSENBURG     FAIR      77  21  12 W21G29    29.87F
TRINIDAD       FAIR      76  20  12 W14G22    29.86F
$$

COZ042>045-048>051-090-091-242100-
...NORTHEAST COLORADO...

CITY           SKY/WX    TMP DP  RH WIND       PRES   REMARKS
GREELEY ARPT   FAIR      70  32  24 CALM      29.83S
AKRON          FAIR      64  31  28 N23G33    29.85S
BURLINGTON     FAIR      69  32  25 N9        29.81S
WRAY           NOT AVBL
YUMA           FAIR      64  21  19 N24       29.82S
STERLING       FAIR      63  36  36 NE14G25   29.84S
HOLYOKE        FAIR      66  32  28 N24       29.83R
FORT MORGAN    FAIR      67  29  24 N24       29.84S
$$

COZ086-089-092>099-242100-
...SOUTHEAST COLORADO...

CITY           SKY/WX    TMP DP  RH WIND       PRES   REMARKS
PUEBLO         FAIR      79  22  12 NE8       29.78F
LA JUNTA       FAIR      76  22  13 W10       29.77F
LAMAR          FAIR      75  24  15 W10       29.73F
SPRINGFIELD      N/A     78  21  12 NW17      29.77S
$$




USA.gov is the U.S. government's official web portal to all federal, state and local government web resources and services.